[[{"header":{"parameterUnit":"m.s-1","parameterCategory":1,"la1":30.2991,"la2":30.254,"lo1":-89.0895,"lo2":-89.0444,"dy":0.0017,"dx":0.0017,"nx":28,"ny":28,"refTime":"2024-08-21T21:00:00:Z","depth":0,"parameterNumber":2,"parameterNumberName":"U-component_of_WINDS"},"data":[0,0,0,0,0,0,0,0,0,0,0,0,0,0,0,0,0,0,0,0,0,0,0,0,0,0,0,0,0,0,0,0,0,0,0,0,0,0,0,0,0,0,0,0,0,0,0,0,0,0,0,0,0,0,0,0,0,0,-4.2098,-4.21,0,-4.2233,-4.2235,-4.2236,-4.2137,-4.2133,-4.2128,-4.2124,-4.2267,-4.2275,-4.2283,0,0,0,0,0,0,0,0,0,0,0,0,0,-4.1759,-4.1766,-4.2098,-4.21,-4.2101,-4.2233,-4.2235,-4.2237,-4.2138,-4.2133,-4.2127,-4.2122,-4.2265,-4.2274,-4.2283,0,0,0,0,0,0,0,0,0,0,0,0,0,-4.1902,-4.1768,-4.2098,-4.2068,-4.2067,-4.2233,-4.2235,-4.2237,-4.2139,-4.2132,-4.2126,-4.212,-4.2261,-4.2273,-4.2285,-4.2489,0,0,-4.2321,-4.2326,0,0,0,0,0,0,0,0,-4.1894,-4.1914,-4.2071,-4.207,-4.2069,-4.2161,-4.2168,-4.2322,-4.2141,-4.2112,-4.2124,-4.2117,-4.2238,-4.2251,-4.2291,-4.2495,-4.2501,-4.2322,-4.2329,-4.2334,-4.2337,0,0,0,0,0,0,0,-4.1884,-4.1908,-4.2152,-4.2073,-4.2072,-4.2049,-4.2062,-4.2196,-4.221,-4.2114,-4.2107,-4.2124,-4.2236,-4.228,-4.2293,-4.2504,-4.2321,-4.2332,-4.2339,-4.2344,-4.2883,-4.289,0,0,0,0,0,0,-4.1876,-4.1901,-4.2147,-4.2156,-4.1963,-4.2061,-4.2075,-4.2139,-4.2208,-4.2212,-4.2129,-4.2119,-4.2263,-4.228,-4.2298,-4.2541,-4.2334,-4.2345,-4.2352,-4.2876,-4.2884,-4.2892,0,0,0,0,0,0,-4.187,-4.1899,-4.2142,-4.2026,-4.2055,-4.2073,-4.2145,-4.2145,-4.2188,-4.222,-4.2222,-4.2171,-4.2258,-4.2281,-4.2442,-4.2545,-4.235,-4.2361,-4.2867,-4.2878,-4.2888,-4.3029,0,0,0,0,0,0,-4.186,-4.1897,-4.1974,-4.2029,-4.2062,-4.2282,-4.2152,-4.2152,-4.2208,-4.2196,-4.226,-4.2264,-4.2255,-4.2425,-4.2454,-4.2558,-4.237,-4.2858,-4.2872,-4.2885,-4.3016,-4.3044,-4.3068,0,0,0,0,0,-4.1849,-4.2009,-4.1978,-4.2009,-4.2158,-4.2288,-4.2307,-4.2292,-4.2217,-4.2295,-4.2315,-4.2262,-4.2529,-4.2442,-4.2474,-4.2583,-4.2851,-4.2868,-4.2884,-4.3004,-4.3038,-4.3067,0,0,0,0,0,0,-4.1968,-4.2016,-4.1982,-4.2165,-4.2223,-4.2271,-4.2369,-4.2329,-4.2411,-4.2396,-4.2375,-4.239,-4.2558,-4.2587,-4.2489,-4.2784,-4.2678,-4.2702,-4.2759,-4.2792,-4.2817,-4.2807,-4.238,0,0,0,0,0,-4.2015,-4.2116,-4.2153,-4.2311,-4.2342,-4.2351,-4.2407,-4.239,-4.245,-4.2474,-4.2507,-4.2568,-4.2666,-4.2731,-4.2822,-4.302,-4.3033,-4.3111,-4.3137,-4.3158,-4.3178,-4.3285,-4.332,-4.2946,-4.2945,-4.2945,0,0,-4.2115,-4.2153,-4.2218,-4.2336,-4.2379,-4.2485,-4.2372,-4.2489,-4.2567,-4.2493,-4.2645,-4.2672,-4.2739,-4.2919,-4.3,-4.2948,-4.3285,-4.3179,-4.3195,-4.3204,-4.3305,-4.3341,-4.3372,-4.2957,-4.2955,-4.2953,0,0,-4.2349,-4.2389,-4.2524,-4.2569,-4.2635,-4.264,-4.2673,-4.2728,-4.2742,-4.2895,-4.2841,-4.2935,-4.3104,-4.3154,-4.3201,-4.3457,-4.3411,-4.3487,-4.3623,-4.3728,-4.3757,-4.3783,-4.3874,-4.3907,-4.3508,-4.3508,-4.3508,0,-4.2464,-4.262,-4.2599,-4.272,-4.2774,-4.271,-4.2848,-4.2894,-4.2987,-4.3027,-4.2967,-4.3177,-4.3218,-4.3409,-4.3471,-4.3512,-4.3549,-4.3479,-4.3754,-4.378,-4.3804,-4.389,-4.3925,-4.3517,-4.3516,-4.3515,-4.3514,0,-4.2758,-4.2868,-4.297,-4.306,-4.3125,-4.3254,-4.3255,-4.3324,-4.3302,-4.3314,-4.3471,-4.3518,-4.3618,-4.3662,-4.3643,-4.3851,-4.3816,-4.3756,-4.3649,-4.3849,-4.393,-4.3963,-4.3529,-4.3526,-4.3523,-4.3521,0,0,-4.307,-4.3148,-4.3186,-4.3226,-4.3295,-4.3379,-4.3506,-4.3603,-4.3662,-4.373,-4.3836,-4.3981,-4.3925,-4.398,-4.3965,-4.4057,-4.4256,-4.3986,-4.3987,-4.4034,-4.4489,-4.4532,-4.4571,-4.4227,-4.4233,-4.4238,-4.4483,0,-4.3308,-4.3526,-4.3512,-4.3719,-4.3819,-4.3761,-4.3872,-4.3927,-4.3942,-4.4031,-4.4048,-4.4151,-4.407,-4.4103,-4.4191,-4.4213,-4.4347,-4.4196,-4.4326,-4.4331,-4.431,-4.4613,-4.466,-4.4888,-4.4514,-4.4519,-4.4523,0,-4.3613,-4.3689,-4.3905,-4.3959,-4.4001,-4.4101,-4.4188,-4.4274,-4.4336,-4.434,-4.4402,-4.4372,-4.4502,-4.4393,-4.4572,-4.4469,-4.4522,-4.4542,-4.455,-4.4561,-4.4438,-4.4632,-4.4961,-4.4995,-4.4573,-4.4569,-4.4565,0,-4.3818,-4.3975,-4.4124,-4.4161,-4.4228,-4.4299,-4.4331,-4.4386,-4.4445,-4.4523,-4.4561,-4.4653,-4.4704,-4.4777,-4.4774,-4.4695,-4.4956,-4.4846,-4.4964,-4.4964,-4.502,-4.5016,-4.5362,-4.5057,-4.5056,-4.5055,-4.5055,0,-4.4084,-4.4218,-4.4217,-4.4309,-4.4459,-4.4442,-4.4591,-4.4615,-4.4666,-4.4762,-4.4719,-4.4811,-4.4802,-4.4895,-4.4894,-4.5043,-4.5066,-4.5074,-4.5072,-4.5078,-4.5077,-4.5111,-4.5095,-4.5064,-4.5062,-4.5061,-4.5059,0,-4.4337,-4.4342,-4.4501,-4.4551,-4.4567,-4.4675,-4.4719,-4.4807,-4.4818,-4.4941,-4.4969,-4.4988,-4.5096,-4.5101,-4.5226,-4.5225,-4.5405,-4.5386,-4.5384,-4.538,-4.5496,-4.5485,-4.5876,-4.5926,-4.5589,-4.5592,-4.5595,0,-4.4505,-4.4607,-4.4668,-4.4729,-4.4764,-4.4863,-4.4923,-4.4912,-4.4976,-4.5055,-4.5134,-4.5238,-4.5319,-4.5495,-4.5521,-4.5616,-4.5598,-4.5729,-4.5612,-4.5615,-4.56,-4.5593,-4.5603,-4.5751,-4.5755,-4.5758,-4.576,0,-4.4804,-4.4801,-4.4888,-4.4977,-4.5049,-4.5119,-4.5183,-4.5236,-4.5233,-4.5308,-4.5416,-4.548,-4.5607,-4.5711,-4.5804,-4.5837,-4.58,-4.5797,-4.5829,-4.5835,-4.5829,-4.5833,-4.5444,-4.5788,-4.5785,-4.5783,-4.5781,-4.578,-4.5019,-4.5106,-4.5163,-4.5262,-4.5309,-4.5371,-4.5455,-4.5478,-4.5568,-4.5669,-4.5658,-4.5779,-4.584,-4.596,-4.6002,-4.6098,-4.6053,-4.61,-4.6112,-4.6123,-4.6135,-4.5815,-4.6115,-4.6115,-4.6114,-4.6113,-4.6113,0,-4.5314,-4.5347,-4.5438,-4.5529,-4.5608,-4.5564,-4.5634,-4.5702,-4.5809,-4.5868,-4.595,-4.6075,-4.6176,-4.621,-4.6308,-4.6378,-4.6364,-4.6405,-4.6399,-4.6407,-4.617,-4.6132,-4.6415,-4.6415,-4.6415,-4.6415,-4.6415,-4.6415,-4.5476,-4.5622,-4.5627,-4.5796,-4.583,-4.5947,-4.599,-4.6047,-4.6094,-4.6236,-4.6319,-4.634,-4.639,-4.6492,-4.6583,-4.659,-4.6628,-4.6677,-4.6677,-4.6454,-4.6424,-4.6395,-4.6359,-4.6685,-4.6686,-4.6906,-4.6908,-4.691]},{"header":{"parameterUnit":"m.s-1","parameterCategory":1,"la1":30.2991,"la2":30.254,"lo1":-89.0895,"lo2":-89.0444,"dy":0.0017,"dx":0.0017,"nx":28,"ny":28,"refTime":"2024-08-21T21:00:00:Z","depth":0,"parameterNumber":3,"parameterNumberName":"V-component_of_WINDS"},"data":[0,0,0,0,0,0,0,0,0,0,0,0,0,0,0,0,0,0,0,0,0,0,0,0,0,0,0,0,0,0,0,0,0,0,0,0,0,0,0,0,0,0,0,0,0,0,0,0,0,0,0,0,0,0,0,0,0,0,-0.149,-0.149,0,-0.1471,-0.1471,-0.1471,-0.1466,-0.1466,-0.1467,-0.1467,-0.1447,-0.1446,-0.1446,0,0,0,0,0,0,0,0,0,0,0,0,0,-0.1521,-0.1521,-0.149,-0.149,-0.149,-0.1471,-0.1471,-0.1471,-0.1466,-0.1466,-0.1467,-0.1467,-0.1447,-0.1447,-0.1446,0,0,0,0,0,0,0,0,0,0,0,0,0,-0.1506,-0.152,-0.149,-0.1485,-0.1485,-0.1471,-0.1471,-0.1471,-0.1466,-0.1466,-0.1467,-0.1467,-0.1448,-0.1447,-0.1446,-0.1436,0,0,-0.1443,-0.1442,0,0,0,0,0,0,0,0,-0.1506,-0.1504,-0.1486,-0.1486,-0.1485,-0.1471,-0.1475,-0.1459,-0.1466,-0.1473,-0.1467,-0.1467,-0.1455,-0.1453,-0.1449,-0.1435,-0.1434,-0.1443,-0.1442,-0.1442,-0.1441,0,0,0,0,0,0,0,-0.1508,-0.1505,-0.1483,-0.1486,-0.1485,-0.1484,-0.1482,-0.1472,-0.1463,-0.1473,-0.1472,-0.147,-0.1455,-0.145,-0.1449,-0.1434,-0.1443,-0.1442,-0.1441,-0.1441,-0.1409,-0.1409,0,0,0,0,0,0,-0.151,-0.1506,-0.1483,-0.1482,-0.1496,-0.1483,-0.1481,-0.1475,-0.1463,-0.1462,-0.147,-0.147,-0.1452,-0.145,-0.1448,-0.1436,-0.1442,-0.1441,-0.144,-0.1409,-0.1409,-0.1409,0,0,0,0,0,0,-0.151,-0.1508,-0.1484,-0.1494,-0.1491,-0.1482,-0.1476,-0.1475,-0.1471,-0.1461,-0.146,-0.1467,-0.1452,-0.145,-0.1439,-0.1435,-0.144,-0.1439,-0.141,-0.1409,-0.1409,-0.141,0,0,0,0,0,0,-0.1511,-0.1508,-0.1504,-0.1494,-0.149,-0.1475,-0.1476,-0.1474,-0.1469,-0.1469,-0.1458,-0.1457,-0.1452,-0.144,-0.1438,-0.1434,-0.1439,-0.141,-0.141,-0.1409,-0.1411,-0.141,-0.141,0,0,0,0,0,-0.1512,-0.1506,-0.1504,-0.1502,-0.1486,-0.1475,-0.1473,-0.1468,-0.1469,-0.1465,-0.1459,-0.1457,-0.1435,-0.1439,-0.1436,-0.1432,-0.141,-0.141,-0.1409,-0.1411,-0.141,-0.141,0,0,0,0,0,0,-0.1516,-0.1504,-0.1503,-0.1493,-0.1485,-0.1474,-0.147,-0.1467,-0.1459,-0.1459,-0.1453,-0.145,-0.144,-0.1435,-0.1439,-0.1421,-0.1423,-0.1422,-0.1425,-0.1424,-0.1424,-0.1426,-0.1438,0,0,0,0,0,-0.1516,-0.1508,-0.1498,-0.149,-0.1486,-0.1479,-0.1474,-0.147,-0.1462,-0.1459,-0.1452,-0.1443,-0.1435,-0.1429,-0.1421,-0.1409,-0.1407,-0.1405,-0.1404,-0.1404,-0.1403,-0.1396,-0.1395,-0.1407,-0.1407,-0.1407,0,0,-0.1515,-0.1508,-0.1503,-0.1491,-0.1484,-0.1476,-0.1476,-0.1468,-0.1461,-0.1457,-0.1447,-0.1441,-0.1431,-0.142,-0.1415,-0.1416,-0.1399,-0.1403,-0.1403,-0.1402,-0.1396,-0.1395,-0.1394,-0.1406,-0.1406,-0.1407,0,0,-0.151,-0.1504,-0.1496,-0.1489,-0.148,-0.1474,-0.1472,-0.1462,-0.1458,-0.1447,-0.1444,-0.1436,-0.1421,-0.1414,-0.1409,-0.1399,-0.1397,-0.1396,-0.1394,-0.1387,-0.1386,-0.1386,-0.1382,-0.1381,-0.1396,-0.1396,-0.1396,0,-0.151,-0.1499,-0.1492,-0.1484,-0.1478,-0.1474,-0.1466,-0.1459,-0.1447,-0.1443,-0.1444,-0.1425,-0.1418,-0.1405,-0.1402,-0.1398,-0.1395,-0.1398,-0.1387,-0.1386,-0.1385,-0.1382,-0.1381,-0.1396,-0.1396,-0.1396,-0.1396,0,-0.1499,-0.1491,-0.1486,-0.1474,-0.1468,-0.146,-0.1452,-0.1446,-0.1442,-0.1437,-0.1425,-0.1417,-0.1406,-0.1402,-0.1399,-0.1388,-0.1389,-0.1388,-0.139,-0.1384,-0.1381,-0.138,-0.1396,-0.1396,-0.1396,-0.1396,0,0,-0.1497,-0.1481,-0.148,-0.1474,-0.1462,-0.1455,-0.1446,-0.1436,-0.1431,-0.1422,-0.1414,-0.1401,-0.14,-0.1394,-0.139,-0.1384,-0.1376,-0.1384,-0.1383,-0.1383,-0.1364,-0.1365,-0.1363,-0.1375,-0.1374,-0.1374,-0.1365,0,-0.1491,-0.1475,-0.1469,-0.1456,-0.1448,-0.1443,-0.1435,-0.1426,-0.142,-0.1412,-0.1406,-0.1396,-0.1396,-0.1392,-0.1386,-0.1379,-0.1373,-0.1379,-0.1367,-0.1367,-0.1371,-0.1362,-0.1363,-0.1355,-0.1363,-0.1363,-0.1363,0,-0.1481,-0.1472,-0.1459,-0.1447,-0.1444,-0.1437,-0.1426,-0.1418,-0.1408,-0.1404,-0.1397,-0.1392,-0.1382,-0.1384,-0.137,-0.1374,-0.1369,-0.1364,-0.1364,-0.1363,-0.1365,-0.1361,-0.1352,-0.1351,-0.1361,-0.1361,-0.1361,0,-0.1481,-0.1466,-0.1455,-0.1451,-0.1437,-0.1432,-0.1426,-0.1416,-0.141,-0.14,-0.1396,-0.1385,-0.138,-0.1371,-0.1364,-0.1366,-0.135,-0.1351,-0.1346,-0.1347,-0.1344,-0.1344,-0.1334,-0.134,-0.134,-0.134,-0.134,0,-0.1475,-0.1467,-0.1455,-0.1449,-0.1439,-0.1432,-0.1422,-0.1416,-0.1407,-0.1399,-0.1393,-0.1386,-0.1376,-0.1367,-0.1361,-0.135,-0.1348,-0.1344,-0.1342,-0.1345,-0.1345,-0.1342,-0.1342,-0.1339,-0.1339,-0.1339,-0.134,0,-0.1473,-0.1465,-0.1454,-0.1441,-0.1438,-0.1432,-0.1421,-0.1414,-0.1407,-0.1397,-0.1394,-0.1384,-0.1373,-0.1365,-0.135,-0.1346,-0.1335,-0.1333,-0.1338,-0.1337,-0.1333,-0.1334,-0.1321,-0.1318,-0.1325,-0.1325,-0.1325,0,-0.147,-0.1464,-0.145,-0.1445,-0.1439,-0.143,-0.1423,-0.1415,-0.1408,-0.1395,-0.139,-0.1379,-0.137,-0.1352,-0.1343,-0.1332,-0.133,-0.1326,-0.1329,-0.1331,-0.133,-0.1331,-0.133,-0.1326,-0.1326,-0.1326,-0.1326,0,-0.1465,-0.1461,-0.1452,-0.1441,-0.1434,-0.1425,-0.1416,-0.1411,-0.1401,-0.1394,-0.1383,-0.1375,-0.1361,-0.1349,-0.1337,-0.133,-0.1326,-0.1325,-0.1324,-0.1326,-0.133,-0.1328,-0.1338,-0.1326,-0.1326,-0.1326,-0.1326,-0.1326,-0.1463,-0.1457,-0.1446,-0.1436,-0.1428,-0.142,-0.1413,-0.1405,-0.1396,-0.1383,-0.1378,-0.1367,-0.1356,-0.1339,-0.1332,-0.1322,-0.1322,-0.132,-0.1319,-0.1319,-0.1319,-0.1331,-0.132,-0.132,-0.132,-0.132,-0.132,0,-0.1457,-0.145,-0.1441,-0.1428,-0.142,-0.1417,-0.1407,-0.14,-0.139,-0.138,-0.1371,-0.1357,-0.1346,-0.1336,-0.1324,-0.1318,-0.1316,-0.1315,-0.1316,-0.1314,-0.132,-0.1323,-0.1317,-0.1317,-0.1317,-0.1317,-0.1317,-0.1317,-0.1454,-0.1443,-0.1438,-0.1423,-0.1416,-0.1405,-0.1399,-0.1391,-0.1383,-0.1368,-0.1359,-0.1352,-0.1342,-0.1329,-0.1318,-0.1315,-0.1311,-0.1311,-0.1308,-0.1313,-0.1314,-0.1314,-0.1317,-0.131,-0.131,-0.1303,-0.1303,-0.1303]}]]